Regional Weather Roundup
Issued by NWS

Home | Current Version | Previous Version | Graphics & Text | Print | Product List | Glossary On
Versions: 1 2 3 4 5 6 7 8 9 10 11 12 13 14 15 16 17 18 19 20 21 22 23 24 25 26 27 28 29 30 31 32 33 34 35 36 37 38 39 40 41 42 43 44 45 46 47 48 49 50
000
ASUS45 KTFX 212219
RWRMT
MONTANA HOURLY WEATHER ROUNDUP
NATIONAL WEATHER SERVICE GREAT FALLS MT
419 PM MDT SUN SEP 21 2014

NOTE: "FAIR" INDICATES FEW OR NO CLOUDS BELOW 12000 FEET WITH NO
SIGNIFICANT WEATHER AND/OR OBSTRUCTIONS TO VISIBILITY.

* THESE STATIONS ARE NOT UNDER NWS QUALITY CONTROL. THEY DO NOT
   REPORT WEATHER SUCH AS PRECIPITATION OR FOG.

MTZ001>007-043-212300-
WEST OF THE DIVIDE
CITY           SKY/WX    TMP DP  RH WIND       PRES   REMARKS
KALISPELL      SUNNY     82  43  25 E3        30.00F
MISSOULA       SUNNY     84  39  20 CALM      30.00F
BUTTE          PTCLDY    75  37  25 S10       30.16F
MULLAN PASS    SUNNY     73  37  27 VRB3      30.16F
* ESSEX        N/A       83  36  19 N6         N/A
* LINCOLN      N/A       83  36  19 NE6G11     N/A
* LOOKOUT PASS N/A       78  42  28 SW6        N/A
* POLSON       N/A       81  43  26 N3         N/A
* RONAN APT    SUNNY     79  43  28 NW5        N/A
* SEELEY LAKE  N/A       84  34  17 SW5G13     N/A
* THOMP F APT  SUNNY     72  36  27 S8G16      N/A
$$

MTZ008-052>055-212300-
SOUTHWEST MONTANA
CITY           SKY/WX    TMP DP  RH WIND       PRES   REMARKS
BOZEMAN        PTCLDY    75  45  34 CALM      30.14F
DILLON         PTSUNNY   75  39  27 NE5       30.14F
W YELLOWSTONE  PTSUNNY   72  39  30 SW7       30.24F
* THREE FORKS  PTCLDY    75  55  50 N/A        N/A
* BOULDER HILL N/A       71  39  31 SW6G12     N/A
* MONIDA PASS  N/A       70  37  30 SE16G25    N/A
* RAYNOLDS PAS N/A       76  66  71 N/A        N/A
* WHITEHALL    N/A       76  43  31 SE6        N/A
* WISE RIVER   N/A       74  36  25 SE12G17    N/A
$$

MTZ009>010-012-014-046-048-049-054-212300-
EAST SLOPES AND CENTRAL MONTANA
CITY           SKY/WX    TMP DP  RH WIND       PRES   REMARKS
CUT BANK       SUNNY     79  43  28 SE13G22   30.09F
GREAT FALLS    SUNNY     75  46  36 E6G16     30.09F
HELENA         PTCLDY    79  46  31 NE5       30.08F
MALMSTROM AFB  SUNNY     75  45  34 E2        30.10F
* CONRAD       SUNNY     77  45  32 E11G17     N/A
* EAST GLACIER N/A       72  44  37 SE11       N/A
* MONARCH      N/A       71  43  37 NE8G15     N/A
* PENDROY      N/A       74  44  34 S12G19     N/A
* ROGERS PASS  N/A       75  42  31 S2G11      N/A
* SAINT MARY   N/A       80  47  31 E8G14      N/A
* SWEET GRASS  N/A       74  37  26 S22G27     N/A
* WHITE SULPH  N/A       74  43  33 N10G15     N/A
$$

MTZ011-013-016-021-035-040-045-047-050-051-212300-
NORTH CENTRAL MONTANA
CITY           SKY/WX    TMP DP  RH WIND       PRES   REMARKS
HAVRE          SUNNY     81  45  28 SE6       30.08F
LEWISTOWN      SUNNY     79  45  30 E7G17     30.15F
* FORT BENTON  SUNNY     79  46  31 E13G18    30.08F
* CHESTER      N/A       75  41  30 SE10G19    N/A
* DENTON       N/A       78  42  28 S17G24     N/A
* GEYSER       N/A       76  43  31 E13        N/A
* JUDITH GAP   N/A       69  45  42 SE15G20    N/A
* LOMA         N/A       79  45  30 E17        N/A
$$

MTZ017>020-022>027-061-062-212300-
NORTHEAST MONTANA
CITY           SKY/WX    TMP DP  RH WIND       PRES   REMARKS
GLASGOW        SUNNY     73  37  27 S10       30.18F
JORDAN         SUNNY     75  41  30 SE10      30.18F
SIDNEY         SUNNY    N/A N/A N/A SE8       30.21F
WOLF POINT     SUNNY     77  37  24 N3        30.19F
* BEAVER HILL  N/A       72  30  21 N/A        N/A
* CIRCLE       N/A       75  41  30 SE5G13     N/A
* LINDSAY DVD  N/A       72  33  24 S10        N/A
* SACO         N/A       74  42  32 SE6G13     N/A
$$

MTZ028>042-056>058-212300-
SOUTHCENTRAL AND SOUTHEAST MONTANA
CITY           SKY/WX    TMP DP  RH WIND       PRES   REMARKS
BAKER          SUNNY     73  32  22 VRB3      30.25F
BILLINGS       PTCLDY    79  41  26 E14       30.15F
LIVINGSTON     PTCLDY    72  45  38 E16       30.16F
MILES CITY     SUNNY     79  37  22 S10       30.19F
* LAUREL APT   SUNNY     79  43  28 NE9        N/A
* ROUNDUP APT  SUNNY     75  41  30 E7         N/A
* ALZADA       N/A       74  34  23 SE4        N/A
* HYSHAM       N/A       76  42  30 E9G14      N/A
* LAME DEER    N/A       72  44  37 SE4G12     N/A
* REED POINT   N/A       75  44  33 NE4        N/A
* ROSCOE HILL  N/A       73  37  27 E10G17     N/A
$$

REGIONAL REPORTS...DAKOTAS
CITY           SKY/WX    TMP DP  RH WIND       PRES   REMARKS
WILLISTON      SUNNY     73  36  26 S7        30.21F
DICKINSON      SUNNY     72  36  27 CALM      30.23F
BEACH          N/A       73  28  19 CALM      30.24F
CROSBY         SUNNY     73  36  26 SW7       30.20F
TIOGA          SUNNY     72  32  23 SW8       30.24F
WATFORD CITY   SUNNY     73  32  22 SW3       30.19F
BISMARCK       SUNNY     75  39  27 NW6G16    30.23F
GRAND FORKS    PTCLDY    66  50  56 NW5       30.19F
FARGO          SUNNY     66  50  56 VRB3      30.21S
BUFFALO SD     SUNNY     73  30  20 VRB5      30.19F
RAPID CITY     SUNNY     73  37  27 S8        30.27F
$$

REGIONAL REPORTS...WYOMING/IDAHO/WASHINGTON
CITY           SKY/WX    TMP DP  RH WIND       PRES   REMARKS
GILLETTE       SUNNY     73  39  29 SE7       30.25F
SHERIDAN       SUNNY     79  41  26 SE15G20   30.18F
CODY           PTCLDY   N/A N/A N/A N/A        N/A
YELLOWSTONE LA PTSUNNY   66  41  40 CALM      30.35F
SALMON         PTSUNNY   79  45  30 CALM      30.00F
MULLAN PASS    SUNNY     73  37  27 VRB3      30.16S
SAND POINT     SUNNY     82  45  27 NE7       29.94F
SPOKANE        SUNNY     86  39  19 N5        29.94F
$$

REGIONAL REPORTS...ALBERTA
CITY           SKY/WX    TMP DP  RH WIND       PRES   REMARKS
CALGARY        SUNNY     79  43  28 S17G24    29.99F
LETHBRIDGE     N/A       81  43  26 S14G25    30.02F
MEDICINE HAT   N/A       81  41  24 S13G20    30.05F
EDMONTON       PTCLDY    82  43  25 S17G25    29.90F
WATERTON GATE  N/A       79  45  30 NE5        N/A
CARDSTON       N/A       79  46  31 SE10       N/A
MILK RIVER     N/A       75  41  30 S17G23     N/A
$$

REGIONAL REPORTS...SASKATCHEWAN
CITY           SKY/WX    TMP DP  RH WIND       PRES   REMARKS
SWIFT CURRENT  SUNNY     75  37  25 S13G20    30.12F
MOOSE JAW      N/A       73  43  34 SW7       30.15F
REGINA         N/A       73  43  34 W10       30.15F
VAL MARIE      N/A       73  41  32 S12        N/A
ASSINIBOIA     N/A       75  34  22 W8         N/A
CORONACH       N/A       75  36  24 SW1        N/A

$$




USA.gov is the U.S. government's official web portal to all federal, state and local government web resources and services.